Voltar ao catálogo

FENGYUN 1C DEB

AtivoPO
NORAD 30385·DEBRIS·🇨🇳 China

Lançado May 10, 1999 de Taiyuan Satellite Launch Center

Loading…

Próximas Passagens (próximas 24 horas)

TLE

AtualizadoSource: Space-Track

Época: Sep 14, 2026, 14:15 UTC

1 30385U 99025ACY 26257.59384437  .00000418  00000-0  13887-3 0  9992
2 30385  99.0556 299.0620 0124643 197.6865 316.1063 14.39212580 27346

Acompanhe FENGYUN 1C DEB em tempo real com AllMySat

Download on the App Store